[[{"header":{"parameterUnit":"m.s-1","parameterCategory":1,"la1":30.2991,"la2":30.254,"lo1":-89.0895,"lo2":-89.0444,"dy":0.0017,"dx":0.0017,"nx":28,"ny":28,"refTime":"2023-11-10T03:00:00:Z","depth":0,"parameterNumber":2,"parameterNumberName":"U-component_of_WINDS"},"data":[0,0,0,0,0,0,0,0,0,0,0,0,0,0,0,0,0,0,0,0,0,0,0,0,0,0,0,0,0,0,0,0,0,0,0,0,0,0,0,0,0,0,0,0,0,0,0,0,0,0,0,0,0,0,0,0,0,0,-3.0786,-3.0787,0,-3.0843,-3.0844,-3.0845,-3.0767,-3.0765,-3.0762,-3.0759,-3.0822,-3.0826,-3.083,0,0,0,0,0,0,0,0,0,0,0,0,0,-3.0615,-3.0619,-3.0786,-3.0787,-3.0788,-3.0843,-3.0844,-3.0845,-3.0768,-3.0765,-3.0761,-3.0758,-3.082,-3.0825,-3.0831,0,0,0,0,0,0,0,0,0,0,0,0,0,-3.0683,-3.062,-3.0786,-3.0756,-3.0754,-3.0843,-3.0844,-3.0845,-3.0769,-3.0764,-3.076,-3.0756,-3.0819,-3.0825,-3.0831,-3.0954,0,0,-3.0851,-3.0854,0,0,0,0,0,0,0,0,-3.0679,-3.0689,-3.076,-3.0758,-3.0756,-3.0794,-3.0807,-3.0882,-3.077,-3.0763,-3.0759,-3.0754,-3.0816,-3.0823,-3.0843,-3.0957,-3.096,-3.0851,-3.0855,-3.0858,-3.086,0,0,0,0,0,0,0,-3.0675,-3.0687,-3.0809,-3.0761,-3.0759,-3.0741,-3.0746,-3.0821,-3.0813,-3.0763,-3.0758,-3.0765,-3.0814,-3.0837,-3.0843,-3.0961,-3.0851,-3.0857,-3.0861,-3.0863,-3.1183,-3.1187,0,0,0,0,0,0,-3.0673,-3.0683,-3.0807,-3.0811,-3.0706,-3.0748,-3.0753,-3.0786,-3.0811,-3.0811,-3.0769,-3.0762,-3.0828,-3.0836,-3.0845,-3.0994,-3.0858,-3.0864,-3.0868,-3.1178,-3.1184,-3.1189,0,0,0,0,0,0,-3.067,-3.0685,-3.0805,-3.0746,-3.0759,-3.0755,-3.0793,-3.0789,-3.0811,-3.0816,-3.0814,-3.0793,-3.0825,-3.0836,-3.0928,-3.0995,-3.0867,-3.0873,-3.1173,-3.118,-3.1186,-3.129,0,0,0,0,0,0,-3.0665,-3.0684,-3.073,-3.0747,-3.0763,-3.0886,-3.0797,-3.0794,-3.0822,-3.0813,-3.0838,-3.0838,-3.0822,-3.0919,-3.0935,-3.1001,-3.0878,-3.1167,-3.1176,-3.1184,-3.1281,-3.13,-3.1316,0,0,0,0,0,-3.0659,-3.0757,-3.0732,-3.0748,-3.082,-3.089,-3.0899,-3.0878,-3.0828,-3.0875,-3.0878,-3.0837,-3.0984,-3.0929,-3.0946,-3.1016,-3.1162,-3.1173,-3.1183,-3.1273,-3.1296,-3.1315,0,0,0,0,0,0,-3.0748,-3.0759,-3.0731,-3.0837,-3.0863,-3.0876,-3.0935,-3.0903,-3.0944,-3.0934,-3.0908,-3.0914,-3.1013,-3.1023,-3.0961,-3.1137,-3.1065,-3.108,-3.1128,-3.115,-3.1167,-3.1164,-3.0883,0,0,0,0,0,-3.078,-3.0835,-3.0841,-3.0934,-3.0948,-3.094,-3.0969,-3.0951,-3.0977,-3.0988,-3.0997,-3.1026,-3.1079,-3.1114,-3.1163,-3.1281,-3.1287,-3.1337,-3.1355,-3.1369,-3.1383,-3.1449,-3.1473,-3.1223,-3.1223,-3.1223,0,0,-3.0847,-3.0859,-3.0895,-3.0952,-3.097,-3.103,-3.0949,-3.1015,-3.1059,-3.0998,-3.1086,-3.1094,-3.1124,-3.1231,-3.1278,-3.1242,-3.1453,-3.1382,-3.1394,-3.14,-3.1462,-3.1486,-3.1507,-3.123,-3.1229,-3.1228,0,0,-3.0999,-3.1013,-3.1093,-3.1112,-3.114,-3.1134,-3.1153,-3.1172,-3.1175,-3.1262,-3.1218,-3.1271,-3.1362,-3.1386,-3.141,-3.1573,-3.1538,-3.1589,-3.1682,-3.1747,-3.1767,-3.1785,-3.1846,-3.1868,-3.1602,-3.1602,-3.1603,0,-3.1079,-3.1165,-3.1139,-3.1208,-3.1235,-3.1181,-3.1264,-3.1285,-3.1328,-3.1349,-3.1307,-3.1422,-3.1438,-3.155,-3.159,-3.161,-3.1634,-3.1588,-3.1766,-3.1783,-3.1799,-3.1857,-3.188,-3.1609,-3.1608,-3.1607,-3.1607,0,-3.1264,-3.1325,-3.1386,-3.1429,-3.1462,-3.1538,-3.1525,-3.1563,-3.1541,-3.154,-3.1631,-3.1648,-3.1701,-3.1726,-3.1706,-3.1837,-3.1814,-3.177,-3.1698,-3.183,-3.1884,-3.1906,-3.1618,-3.1615,-3.1614,-3.1612,0,0,-3.1476,-3.1502,-3.1526,-3.1545,-3.1572,-3.1619,-3.1693,-3.1743,-3.1778,-3.1809,-3.1873,-3.1951,-3.1911,-3.1939,-3.1921,-3.1977,-3.2109,-3.1926,-3.1927,-3.1963,-3.2259,-3.2294,-3.232,-3.2085,-3.2089,-3.2093,-3.2257,0,-3.163,-3.1757,-3.1736,-3.186,-3.1917,-3.1867,-3.1932,-3.1957,-3.1958,-3.2008,-3.2009,-3.2066,-3.2007,-3.2024,-3.2077,-3.2082,-3.2169,-3.2069,-3.2147,-3.215,-3.2145,-3.2348,-3.2385,-3.254,-3.2278,-3.2282,-3.2284,0,-3.1828,-3.1867,-3.1996,-3.2016,-3.2039,-3.2098,-3.2144,-3.2191,-3.2219,-3.2216,-3.2247,-3.2219,-3.2295,-3.222,-3.2326,-3.2259,-3.2289,-3.2297,-3.2302,-3.2311,-3.2228,-3.2366,-3.2588,-3.2613,-3.2317,-3.2314,-3.2312,0,-3.1974,-3.2058,-3.2147,-3.2165,-3.2189,-3.2232,-3.2245,-3.2268,-3.23,-3.234,-3.2362,-3.241,-3.2438,-3.2477,-3.2464,-3.241,-3.2575,-3.2497,-3.2577,-3.2578,-3.2617,-3.2615,-3.2851,-3.2631,-3.2631,-3.263,-3.263,0,-3.2151,-3.2233,-3.2213,-3.2268,-3.236,-3.2334,-3.2426,-3.2432,-3.2454,-3.2512,-3.247,-3.2526,-3.2503,-3.2558,-3.2548,-3.264,-3.2652,-3.2653,-3.2651,-3.2659,-3.2659,-3.2681,-3.2671,-3.2637,-3.2635,-3.2634,-3.2633,0,-3.233,-3.2319,-3.2414,-3.2429,-3.2435,-3.2502,-3.2516,-3.2569,-3.2566,-3.264,-3.2655,-3.2652,-3.2714,-3.2704,-3.2773,-3.2767,-3.2882,-3.2864,-3.2873,-3.287,-3.2952,-3.2946,-3.3212,-3.3248,-3.3002,-3.3004,-3.3006,0,-3.2445,-3.2507,-3.2529,-3.2564,-3.258,-3.2636,-3.2669,-3.2647,-3.2683,-3.272,-3.277,-3.2828,-3.2873,-3.2975,-3.298,-3.3033,-3.3019,-3.3108,-3.3027,-3.3034,-3.3025,-3.3022,-3.303,-3.3126,-3.3129,-3.3131,-3.3133,0,-3.2652,-3.2644,-3.2692,-3.2739,-3.2779,-3.2816,-3.2848,-3.2879,-3.286,-3.2903,-3.2966,-3.3001,-3.3071,-3.3131,-3.3181,-3.3195,-3.3163,-3.3158,-3.318,-3.3191,-3.3195,-3.3198,-3.2921,-3.3153,-3.3151,-3.3149,-3.3148,-3.3147,-3.2805,-3.2859,-3.2883,-3.2939,-3.2961,-3.2993,-3.3044,-3.3047,-3.3099,-3.3154,-3.3137,-3.3209,-3.3238,-3.3301,-3.3321,-3.3379,-3.3346,-3.3377,-3.3386,-3.3395,-3.3406,-3.3183,-3.3387,-3.3387,-3.3386,-3.3386,-3.3385,0,-3.3013,-3.3026,-3.3077,-3.3124,-3.3169,-3.3131,-3.3165,-3.3206,-3.3269,-3.3297,-3.3343,-3.3416,-3.3474,-3.3484,-3.3539,-3.3583,-3.357,-3.3599,-3.3597,-3.3602,-3.343,-3.3407,-3.3609,-3.3609,-3.3609,-3.3609,-3.3609,-3.3609,-3.3126,-3.3217,-3.3212,-3.3313,-3.3326,-3.3395,-3.3419,-3.3449,-3.3471,-3.3555,-3.3602,-3.3607,-3.3629,-3.3686,-3.3738,-3.374,-3.3764,-3.38,-3.3796,-3.3636,-3.3614,-3.3593,-3.3571,-3.3804,-3.3804,-3.3963,-3.3965,-3.3966]},{"header":{"parameterUnit":"m.s-1","parameterCategory":1,"la1":30.2991,"la2":30.254,"lo1":-89.0895,"lo2":-89.0444,"dy":0.0017,"dx":0.0017,"nx":28,"ny":28,"refTime":"2023-11-10T03:00:00:Z","depth":0,"parameterNumber":3,"parameterNumberName":"V-component_of_WINDS"},"data":[0,0,0,0,0,0,0,0,0,0,0,0,0,0,0,0,0,0,0,0,0,0,0,0,0,0,0,0,0,0,0,0,0,0,0,0,0,0,0,0,0,0,0,0,0,0,0,0,0,0,0,0,0,0,0,0,0,0,-4.1519,-4.1519,0,-4.1426,-4.1425,-4.1424,-4.1329,-4.1327,-4.1326,-4.1325,-4.1225,-4.1223,-4.1222,0,0,0,0,0,0,0,0,0,0,0,0,0,-4.1611,-4.161,-4.152,-4.1518,-4.1517,-4.1426,-4.1425,-4.1424,-4.1329,-4.1327,-4.1326,-4.1324,-4.1225,-4.1223,-4.1221,0,0,0,0,0,0,0,0,0,0,0,0,0,-4.155,-4.1609,-4.152,-4.1459,-4.1453,-4.1427,-4.1425,-4.1423,-4.1329,-4.1327,-4.1325,-4.1324,-4.1226,-4.1223,-4.1221,-4.1246,0,0,-4.1214,-4.1214,0,0,0,0,0,0,0,0,-4.1553,-4.1546,-4.1469,-4.1463,-4.1456,-4.1387,-4.142,-4.1364,-4.133,-4.1376,-4.1325,-4.1323,-4.128,-4.1273,-4.126,-4.1241,-4.1237,-4.1214,-4.1213,-4.1212,-4.1211,0,0,0,0,0,0,0,-4.1558,-4.155,-4.1482,-4.1468,-4.146,-4.1435,-4.1424,-4.1409,-4.134,-4.1372,-4.1365,-4.1355,-4.1276,-4.1262,-4.1257,-4.1236,-4.1214,-4.1212,-4.1211,-4.121,-4.1232,-4.1234,0,0,0,0,0,0,-4.1572,-4.1554,-4.1485,-4.148,-4.1501,-4.1435,-4.1423,-4.1411,-4.134,-4.1327,-4.1357,-4.1351,-4.1267,-4.1259,-4.1253,-4.1277,-4.1212,-4.121,-4.1209,-4.123,-4.1232,-4.1234,0,0,0,0,0,0,-4.1574,-4.1567,-4.1489,-4.1515,-4.1503,-4.1435,-4.1423,-4.141,-4.1396,-4.1328,-4.1315,-4.1356,-4.1265,-4.1256,-4.1249,-4.1272,-4.1209,-4.1207,-4.1228,-4.1231,-4.1233,-4.1325,0,0,0,0,0,0,-4.1577,-4.1568,-4.1578,-4.1516,-4.1502,-4.1489,-4.1425,-4.141,-4.1393,-4.1385,-4.1324,-4.1312,-4.1263,-4.1252,-4.1246,-4.1268,-4.1205,-4.1225,-4.1229,-4.1232,-4.132,-4.1331,-4.134,0,0,0,0,0,-4.1581,-4.1607,-4.1579,-4.1571,-4.1514,-4.149,-4.1482,-4.1426,-4.1396,-4.1404,-4.1361,-4.1314,-4.127,-4.1253,-4.1245,-4.1266,-4.1224,-4.1228,-4.1232,-4.1315,-4.1329,-4.134,0,0,0,0,0,0,-4.1672,-4.1597,-4.1566,-4.1573,-4.1539,-4.1474,-4.1483,-4.1443,-4.1415,-4.1408,-4.1338,-4.1325,-4.1326,-4.1295,-4.1276,-4.1285,-4.124,-4.1243,-4.1306,-4.1318,-4.1328,-4.1336,-4.1203,0,0,0,0,0,-4.1693,-4.1682,-4.1617,-4.1629,-4.1614,-4.1552,-4.154,-4.15,-4.1461,-4.1445,-4.1401,-4.1364,-4.1341,-4.1328,-4.1304,-4.1315,-4.1299,-4.1325,-4.1336,-4.1344,-4.1348,-4.135,-4.1361,-4.1248,-4.1248,-4.1248,0,0,-4.1736,-4.1694,-4.1691,-4.1646,-4.1615,-4.1604,-4.154,-4.1531,-4.1521,-4.1443,-4.1434,-4.14,-4.1354,-4.1356,-4.1354,-4.133,-4.1375,-4.135,-4.1357,-4.1356,-4.1356,-4.1366,-4.1376,-4.1251,-4.1251,-4.125,0,0,-4.1809,-4.1777,-4.1783,-4.1753,-4.1707,-4.1666,-4.1668,-4.1609,-4.1584,-4.1574,-4.1516,-4.1502,-4.1465,-4.1435,-4.1414,-4.1475,-4.143,-4.1469,-4.1522,-4.1526,-4.1534,-4.1542,-4.1563,-4.1571,-4.1472,-4.1473,-4.1473,0,-4.1868,-4.185,-4.1791,-4.1786,-4.1767,-4.1698,-4.1703,-4.1676,-4.1624,-4.1613,-4.1586,-4.1539,-4.1502,-4.1496,-4.1511,-4.1497,-4.1495,-4.1475,-4.1538,-4.1545,-4.1551,-4.157,-4.1579,-4.1477,-4.1477,-4.1476,-4.1476,0,-4.1924,-4.1912,-4.1923,-4.1876,-4.1859,-4.1859,-4.1799,-4.1788,-4.1749,-4.171,-4.17,-4.1655,-4.162,-4.1615,-4.1577,-4.1603,-4.1589,-4.1552,-4.1504,-4.1568,-4.1585,-4.1592,-4.1485,-4.1483,-4.1481,-4.148,0,0,-4.2052,-4.1973,-4.1978,-4.1955,-4.19,-4.1888,-4.1884,-4.1852,-4.1844,-4.181,-4.1804,-4.1774,-4.1739,-4.1716,-4.1673,-4.1677,-4.1727,-4.1638,-4.1636,-4.1656,-4.1752,-4.178,-4.179,-4.1697,-4.1698,-4.1699,-4.1755,0,-4.2114,-4.2105,-4.2052,-4.2058,-4.2045,-4.1979,-4.1975,-4.194,-4.1903,-4.1886,-4.1844,-4.1824,-4.178,-4.1765,-4.1765,-4.1721,-4.1745,-4.1716,-4.1689,-4.1689,-4.1703,-4.1799,-4.1829,-4.1884,-4.1762,-4.1763,-4.1763,0,-4.2187,-4.2159,-4.2164,-4.2108,-4.2101,-4.2099,-4.2064,-4.2049,-4.2007,-4.1979,-4.1954,-4.1906,-4.1897,-4.1853,-4.1838,-4.1819,-4.1805,-4.1781,-4.1782,-4.1777,-4.173,-4.1796,-4.19,-4.1909,-4.1773,-4.1773,-4.1772,0,-4.2279,-4.2243,-4.2241,-4.2224,-4.2158,-4.2158,-4.2131,-4.2087,-4.207,-4.2039,-4.2028,-4.1996,-4.1978,-4.1953,-4.1898,-4.1871,-4.1888,-4.184,-4.1864,-4.1866,-4.1871,-4.1871,-4.1974,-4.1862,-4.1862,-4.1862,-4.1862,0,-4.2354,-4.236,-4.2281,-4.228,-4.2284,-4.2222,-4.2226,-4.2192,-4.2154,-4.2143,-4.2083,-4.2074,-4.2002,-4.1984,-4.194,-4.1934,-4.1926,-4.1902,-4.1891,-4.1908,-4.1911,-4.1897,-4.1892,-4.1864,-4.1864,-4.1863,-4.1863,0,-4.2458,-4.2406,-4.2399,-4.2338,-4.2323,-4.2328,-4.2275,-4.227,-4.223,-4.2218,-4.2211,-4.2147,-4.2123,-4.2065,-4.2026,-4.1996,-4.2001,-4.1979,-4.2016,-4.2008,-4.2035,-4.2034,-4.2133,-4.2143,-4.2026,-4.2027,-4.2028,0,-4.251,-4.2513,-4.2452,-4.2442,-4.2417,-4.2401,-4.2384,-4.2323,-4.2308,-4.226,-4.2261,-4.2232,-4.2207,-4.2171,-4.212,-4.2089,-4.2066,-4.2103,-4.2061,-4.2078,-4.2066,-4.2066,-4.2066,-4.2112,-4.2114,-4.2115,-4.2116,0,-4.2607,-4.2581,-4.256,-4.253,-4.2513,-4.2486,-4.2455,-4.245,-4.238,-4.2366,-4.2342,-4.2322,-4.2282,-4.2254,-4.2215,-4.2184,-4.2138,-4.213,-4.2134,-4.2151,-4.2172,-4.216,-4.2041,-4.2128,-4.2127,-4.2126,-4.2125,-4.2125,-4.2685,-4.2685,-4.2642,-4.2621,-4.2592,-4.2565,-4.2558,-4.2517,-4.2496,-4.246,-4.2425,-4.2404,-4.236,-4.2303,-4.2276,-4.2257,-4.2233,-4.2239,-4.224,-4.2243,-4.225,-4.2175,-4.2249,-4.2249,-4.2249,-4.2248,-4.2248,0,-4.2779,-4.2749,-4.273,-4.269,-4.2673,-4.2633,-4.2597,-4.2585,-4.2568,-4.2531,-4.2508,-4.2479,-4.2452,-4.2399,-4.2366,-4.2361,-4.2339,-4.2354,-4.2354,-4.2347,-4.2273,-4.2273,-4.2373,-4.2373,-4.2373,-4.2373,-4.2373,-4.2373,-4.2826,-4.2823,-4.2792,-4.2773,-4.2741,-4.2722,-4.2705,-4.2679,-4.2649,-4.2621,-4.2599,-4.2565,-4.2521,-4.2485,-4.2457,-4.2442,-4.2432,-4.2455,-4.2433,-4.2364,-4.2353,-4.2341,-4.2341,-4.2453,-4.2453,-4.2508,-4.2509,-4.2509]}]]